Starlink 2682

operational
NORAD ID: 48440 Int'l Des: 2021-040 Owner: SPXS Country: US Constellation: starlink
LEOCIRCULARSTARLINK_TYPE

About Starlink 2682

Description loading...

Live Position

Loading 3D Globe...

Upcoming Passes

Altitude History

Altitude vs Time

uPlot chart will show altitude changes over time

Two-Line Element Set

1 48440U 21040N 26035.50799104 .00010209 00000-0 70348-3 0 9995
2 48440 53.0533 330.5771 0001155 92.1769 267.9352 15.06387729261622
Epoch: Feb 4, 2026 • Age: 16 hours

Current Status

Altitude 550.3 km
Velocity 7.59 km/s
Sub-Earth Point 40.93°N, 98.32°W
Launch Date May 9, 2021
Age 4.7 years
Type internet

Technical Details

Classification Payload
Mass 260.00 kg
Dry Mass 248.00 kg
Total Mass 260.00 kg
Length 0.20 m
Diameter 2.80 m
Span 9.00 m
Shape Box + pan
Manufacturer SPXS
Bus Type Starlink
Phase Status In Orbit
Owner/State SPXS/US

Large Constellations

Loading constellations...